Observations for Trim Patrick St
| Time | AQI | Temp °C | Hum % | Pres Pa | CO μg/m³ | H₂S μg/m³ | NO μg/m³ | NO₂ μg/m³ | O₃ μg/m³ | SO₂ μg/m³ | PM1 μg/m³ | PM2.5 μg/m³ | PM10 μg/m³ |
|---|---|---|---|---|---|---|---|---|---|---|---|---|---|
| Wednesday 26 August 2026 | |||||||||||||
| 21:55 | 3 | 17.5 | 77 | 38,460 | 0.06 | 12.5 | 0.99 | 40.32 | 47.77 | 0 | 18.29 | 25.16 | 27.67 |
| 21:54 | 3 | 17.5 | 77 | 38,460 | 0.07 | 11.35 | 1.06 | 40.32 | 44.05 | 0 | 18.29 | 25.88 | 28.46 |
| 21:53 | 3 | 17.5 | 77 | 38,460 | 0.03 | 11.3 | 1.13 | 32.45 | 51.06 | 0 | 19.14 | 26.58 | 29.24 |
| 21:52 | 3 | 17.5 | 77 | 38,460 | 0.03 | 11.67 | 1.37 | 34.95 | 51.79 | 0 | 19.14 | 25.9 | 28.49 |
| 21:51 | 3 | 17.6 | 77 | 38,460 | 0 | 11.85 | 1.37 | 30.91 | 51.91 | 0 | 17.43 | 23.79 | 26.17 |
| 21:50 | 3 | 17.6 | 77 | 38,460 | 0.02 | 12.37 | 1.3 | 37.73 | 51.96 | 0 | 15.71 | 22.38 | 24.62 |
| 21:49 | 3 | 17.6 | 77 | 38,460 | 0.02 | 12.16 | 1.23 | 31.25 | 52.53 | 0 | 15.71 | 25.22 | 25.24 |
| 21:48 | 3 | 17.6 | 77 | 38,460 | 0.02 | 13.18 | 1.11 | 36.64 | 55.44 | 0 | 19.14 | 25.23 | 27.76 |
| 21:46 | 3 | 17.7 | 76 | 38,460 | 0.01 | 12.35 | 0.94 | 25.81 | 54.58 | 0 | 15.71 | 23.84 | 26.23 |
| 21:45 | 3 | 17.7 | 76 | 38,460 | 0 | 14.18 | 0.85 | 40.09 | 64.71 | 0 | 18.29 | 28.83 | 28.98 |
| 21:44 | 3 | 17.7 | 76 | 38,460 | 0 | 12.74 | 0.81 | 39.72 | 52.49 | 0 | 15.71 | 21.06 | 23.16 |
| 21:42 | 3 | 17.8 | 76 | 38,460 | 0 | 12.85 | 0.98 | 31.72 | 53.51 | 0 | 16.57 | 23.23 | 25.55 |
| 21:40 | 3 | 17.8 | 74 | 38,460 | 0 | 14.16 | 1.13 | 48.04 | 52.65 | 0 | 19.14 | 26.22 | 28.84 |
| 21:39 | 3 | 17.9 | 75 | 38,460 | 0 | 13.53 | 1.11 | 32.62 | 54.84 | 0 | 17.43 | 25.49 | 28.04 |
| 21:35 | 3 | 17.9 | 75 | 38,460 | 0 | 13.06 | 1.01 | 36.26 | 51.41 | 0.33 | 17.43 | 24.02 | 26.42 |
| 21:34 | 3 | 18 | 75 | 38,460 | 0 | 12.03 | 0.98 | 31.5 | 52.62 | 0.71 | 17.43 | 22.61 | 24.87 |
| 21:33 | 3 | 18 | 75 | 38,460 | 0 | 13 | 0.98 | 39.03 | 49.46 | 0.14 | 15.71 | 21.91 | 24.1 |
| 21:32 | 3 | 18.1 | 75 | 38,460 | 0 | 13.9 | 0.9 | 49.69 | 43.72 | 0 | 17.43 | 25.48 | 28.03 |
| 21:31 | 3 | 18.1 | 74 | 38,460 | 0 | 13.14 | 0.9 | 35.37 | 52.91 | 0.36 | 16.57 | 22.66 | 24.93 |
| 21:30 | 3 | 18.2 | 74 | 38,460 | 0 | 12.72 | 0.77 | 35.3 | 53.47 | 0.39 | 17.43 | 24.08 | 26.49 |